• Processing (Info)

  • MPEC 2002-L67 : 2002 LY45

    The following Minor Planet Electronic Circular may be linked-to from your own Web pages, but must not otherwise be redistributed electronically.

    A form allowing access to any MPEC is at the bottom of this page.


    Read MPEC 2002-L66 Read MPEC 2002-L68


    M.P.E.C. 2002-L67                                Issued 2002 June 15, 18:24 UT
    
         The Minor Planet Electronic Circulars contain information on unusual
             minor planets and routine data on comets.  They are published
       on behalf of Commission 20 of the International Astronomical Union by the
              Minor Planet Center, Smithsonian Astrophysical Observatory,
                              Cambridge, MA 02138, U.S.A.
    
                 Prepared using the Tamkin Foundation Computer Network
    
                                  MPC@CFA.HARVARD.EDU
              URL http://cfa-www.harvard.edu/iau/mpc.html  ISSN 1523-6714
    
                                       2002 LY45
    
    Observations:
         K02L45Y* C2002 06 14.23889 16 57 18.16 +02 28 22.8          18.2        704
         K02L45Y  C2002 06 14.25205 16 57 14.75 +02 28 40.3          18.3        704
         K02L45Y  C2002 06 14.26594 16 57 11.18 +02 28 59.1          18.4        704
         K02L45Y  C2002 06 14.27912 16 57 07.78 +02 29 17.1          18.6        704
         K02L45Y  C2002 06 14.29363 16 57 03.99 +02 29 36.4          18.5        704
         K02L45Y  C2002 06 14.86729 16 54 38.37 +02 42 30.6                      118
         K02L45Y  C2002 06 14.86796 16 54 38.28 +02 42 33.3          17.4 R      946
         K02L45Y  C2002 06 14.86878 16 54 37.95 +02 42 32.6          17.7 R      118
         K02L45Y  C2002 06 14.87772 16 54 35.76 +02 42 44.5                      118
         K02L45Y  C2002 06 14.88247 16 54 34.49 +02 42 52.3          17.6 R      941
         K02L45Y  C2002 06 14.88520 16 54 33.92 +02 42 54.5          17.6 R      941
         K02L45Y  C2002 06 14.88655 16 54 33.44 +02 42 58.9          17.1 R      946
         K02L45Y  C2002 06 14.89020 16 54 32.48 +02 43 02.6          17.7 R      941
         K02L45Y  C2002 06 14.89242 16 54 31.80 +02 43 04.4                      246
         K02L45Y  C2002 06 14.89243 16 54 32.07 +02 43 04.7          17.6 R      941
         K02L45Y  C2002 06 14.89277 16 54 31.78 +02 43 06.9          17.2 R      946
         K02L45Y  C2002 06 14.89316 16 54 31.61 +02 43 05.2                      246
         K02L45Y  C2002 06 14.89376 16 54 31.45 +02 43 06.2                      246
         K02L45Y  C2002 06 14.89441 16 54 31.28 +02 43 07.0                      246
         K02L45Y  C2002 06 14.89498 16 54 31.11 +02 43 07.8                      246
         K02L45Y  C2002 06 14.89568 16 54 30.92 +02 43 08.9                      246
         K02L45Y  C2002 06 14.90363 16 54 28.92 +02 43 19.8          17.7 V      611
         K02L45Y  C2002 06 14.90446 16 54 28.94 +02 43 23.1          17.6 R      952
         K02L45Y  C2002 06 14.90502 16 54 28.54 +02 43 20.8          17.8 V      611
         K02L45Y  C2002 06 14.90641 16 54 28.24 +02 43 23.1          17.7 V      611
         K02L45Y  C2002 06 14.90981 16 54 27.22 +02 43 28.3          17.7 V      108
         K02L45Y  C2002 06 14.91032 16 54 27.22 +02 43 32.2                      952
         K02L45Y  C2002 06 14.91221 16 54 26.66 +02 43 32.9          18.0 V      157
         K02L45Y  C2002 06 14.91360 16 54 26.48 +02 43 33.4          17.5 V      108
         K02L45Y  C2002 06 14.91377 16 54 26.35 +02 43 35.4          17.4 R      176
         K02L45Y  C2002 06 14.91396 16 54 26.18 +02 43 35.2          17.7 V      157
         K02L45Y  C2002 06 14.91433 16 54 26.14 +02 43 37.2                      952
         K02L45Y  C2002 06 14.91572 16 54 25.68 +02 43 38.0          17.8 V      157
         K02L45Y  C2002 06 14.91655 16 54 25.63 +02 43 39.2          17.3 R      176
         K02L45Y  C2002 06 14.91748 16 54 25.20 +02 43 39.9          17.6 V      157
         K02L45Y  C2002 06 14.91846 16 54 25.06 +02 43 40.2          17.5 V      108
         K02L45Y  C2002 06 14.92213 16 54 24.18 +02 43 46.9          17.5 R      176
         K02L45Y  C2002 06 14.92488 16 54 23.46 +02 43 50.6          17.4 R      176
         K02L45Y  C2002 06 14.93057 16 54 21.90 +02 43 56.6          18.2 V      151
         K02L45Y  C2002 06 14.93541 16 54 20.61 +02 44 03.0          17.5 V      151
         K02L45Y  C2002 06 14.93588 16 54 20.60 +02 44 05.6          17.5 R      176
         K02L45Y  C2002 06 14.93678 16 54 20.26 +02 44 05.1          17.9 V      151
         K02L45Y  C2002 06 14.93833 16 54 19.86 +02 44 08.0          17.8 V      151
         K02L45Y  C2002 06 14.94427 16 54 18.31 +02 44 15.2          17.6 R      587
         K02L45Y  C2002 06 14.94611 16 54 17.83 +02 44 17.8          17.6 R      587
         K02L45Y  C2002 06 14.94793 16 54 17.31 +02 44 19.8          17.6 R      587
         K02L45Y  C2002 06 15.01455 16 53 59.86 +02 45 49.3                      557
         K02L45Y  C2002 06 15.01547 16 53 59.65 +02 45 50.7                      557
         K02L45Y  C2002 06 15.01641 16 53 59.39 +02 45 51.7                      557
         K02L45Y  C2002 06 15.01735 16 53 59.14 +02 45 52.9          18.2 V      557
         K02L45Y  C2002 06 15.01829 16 53 58.90 +02 45 54.2                      557
         K02L45Y  C2002 06 15.01921 16 53 58.65 +02 45 55.4                      557
         K02L45Y  C2002 06 15.19133 16 53 14.80 +02 49 51.8          17.3 R      734
         K02L45Y  C2002 06 15.19769 16 53 13.04 +02 50 00.1          17.5 R      734
         K02L45Y  C2002 06 15.20606 16 53 10.84 +02 50 11.9          17.4 R      649
         K02L45Y  C2002 06 15.20836 16 53 10.24 +02 50 15.0          17.4 R      649
         K02L45Y  C2002 06 15.21528 16 53 08.39 +02 50 24.6          17.4 R      649
         K02L45Y  C2002 06 15.25135 16 52 58.94 +02 51 11.3                      918
         K02L45Y  C2002 06 15.25436 16 52 58.11 +02 51 15.9                      918
         K02L45Y  C2002 06 15.25719 16 52 57.41 +02 51 18.5          18.0 R      918
         K02L45Y  C2002 06 15.26689 16 52 54.87 +02 51 32.4                      918
    
    Observer details:
    108 Montelupo.  Observers M. Tombelli, A. Boattini, L. Tesi, E. Masotti.
        Measurers M. Tombelli, A. Boattini, L. Tesi, S. Bartolini, G. Forti.
        0.30-m f/5.7 Schmidt-Cassegrain + CCD.
    118 Modra.  Observers J. Toth, S. Gajdos.  0.6-m f/5.5 reflector + CCD.
    151 Eschenberg Observatory, Winterthur.  Observer M. Griesser.  0.40-m f/5.8
        Hypergraph + CCD.
    157 Frasso Sabino.  Observers R. Haver, F. Anzellini.  0.20-m f/6.3
        Schmidt-Cassegrain + CCD.
    176 Observatori Astronomic de Consell.  Observers A. Lopez, R. Pacheco.  0.2-m
        f/3.3 Schmidt-Cassegrain + CCD.
    246 Klet Observatory-KLENOT.  Observers J. Ticha, M. Tichy.  1.06-m KLENOT
        telescope + CCD.
    557 Ondrejov.  Observer P. Kusnirak.  0.65-m f/3.6 reflector + CCD.
    587 Sormano.  Observers F. Manca, P. Sicoli.  0.5-m reflector + CCD.
    611 Starkenburg.  Observers M. Busch, F. Hormuth.  0.45-m f/4.4 reflector
        + CCD.
    649 Powell Observatory, Louisburg.  Observers K. Smalley, R. Fredrick.
        0.75-m Newtonian + CCD.
    704 Lincoln Laboratory ETS, New Mexico.  Observers M. Blythe, F. Shelly,
        M. Bezpalko, R. Huber, L. Manguso, S. Adams, J. Piscitelli.  Measurers
        J. Stuart, R. Sayer, J. B. Evans, H. Viggh.  1.0-m f/2.15 reflector + CCD.
    734 Farpoint Observatory.  Observer G. Hug.  0.30-m Schmidt-Cassegrain + CCD.
    918 Badlands Observatory, Quinn.  Observer R. Dyvig.  0.66-m f/4.8 reflector
        + CCD.
    941 Observatorio Pla D'Arguines.  Observer R. Ferrando.  0.26-m f/10
        Schmidt-Cassegrain + CCD.
    946 Ametlla de Mar.  Observer J. Nomen.  0.40-m f/2.0 Schmidt + CCD.
    952 Marxuquera.  Observer J. J. Gomez.  0.25-m f/3.3 Schmidt-Cassegrain + CCD.
    
    Orbital elements:
    2002 LY45                                                            PHA 0.009
    Epoch 2002 June 15.0 TT = JDT 2452440.5                 MPC
    M 317.21390              (2000.0)            P               Q
    n   0.53068167     Peri.  220.97851     +0.63077862     -0.77538654
    a   1.5109380      Node   190.03889     +0.74915629     +0.61857623
    e   0.8659540      Incl.    9.87687     +0.20219592     +0.12704001
    P   1.86           H   17.2           G   0.15
    From 59 observations 2002 June 14-15.
    
    Ephemeris:
    2002 LY45                a,e,i = 1.51, 0.87, 10                  q = 0.2025
    Date    TT    R. A. (2000) Decl.     Delta      r     Elong.  Phase     V
    2002 06 15    16 54.07   +02 45.7    0.593    1.565   152.3    17.6    18.0
    2002 06 25    16 05.91   +06 28.3    0.524    1.443   136.7    28.9    17.9
    2002 07 05    15 11.29   +09 33.3    0.492    1.311   116.3    44.1    17.9
    2002 07 15    14 17.50   +11 29.0    0.489    1.166    95.1    60.2    18.1
    2002 07 25    13 28.38   +12 23.4    0.502    1.007    74.7    76.6    18.4
    2002 08 04    12 41.53   +12 46.1    0.521    0.829    54.6    94.6    18.8
    2002 08 14    11 50.12   +13 00.1    0.552    0.628    33.1   118.1    19.6
    
    Brian G. Marsden             (C) Copyright 2002 MPC           M.P.E.C. 2002-L67
    

    Read MPEC 2002-L66 Read MPEC 2002-L68


    MPEC number:

    Enter an MPEC number in one of the following forms:

    • 1997-B01 (the full form)
    • J97B01 (the packed version of the full form)
    • B01 (the abbreviated form)